Voltar ao catálogo

STARLINK-32792

AtivoComunicaçõesVLEO
NORAD 62504·PAYLOAD·🇺🇸 United States

Lançado Jan 6, 2025 de Cape Canaveral Space Force Station

Loading…

Próximas Passagens (próximas 24 horas)

TLE

AtualizadoSource: CelesTrak SupGP

Época: Sep 14, 2026, 20:57 UTC

1 62504C 25003T   26257.87340278 -.00021888  00000+0 -79277-3 0  2578
2 62504  43.0021 300.1305 0001568 270.2202 307.1537 15.27589964    19

Acompanhe STARLINK-32792 em tempo real com AllMySat

Download on the App Store